{"data":{"norad_id":67155,"epoch":"2026-09-20T09:01:18.118560Z","epoch_age_seconds":116796,"freshness":"FRESH","line1":"1 67155U 25301Y   26263.37590415  .00001445  00000+0  21853-3 0  9993","line2":"2 67155  51.9006 289.6872 0000630  60.4646 299.6379 14.79928120 42525","mean_motion":14.7992812,"eccentricity":6.3e-5,"inclination_deg":51.9006,"raan_deg":289.6872,"arg_perigee_deg":60.4646,"mean_anomaly_deg":299.6379,"bstar":0.00021853,"rev_number":4252,"period_min":97.302023019875,"perigee_km":629.10954982191,"apogee_km":629.99251851421,"semimajor_km":7007.6880341681,"source":"CELESTRAK","updated_at":"2026-09-21T09:00:16.460470Z"}}